Location: Newark
(5.8900°S, 42.6378°W)
Time: 02:13:43
(UTC+00:00)

deb Explorer IX - Pass Details

Date: 30 October 2019
Orbit: 546 x 1105 km, 38.8° (Epoch: 12 November)

Event Time Altitude Azimuth Distance (km) Brightness Sun altitude
Exits shadow 05:43:28 10° 166° (SSE) 2,316 ? -39.1°
Reaches altitude 10° 05:43:43 10° 164° (SSE) 2,287 ? -39.1°
Maximum altitude 05:44:54 11° 151° (SSE) 2,198 ? -38.8°
Drops below altitude 10° 05:46:03 10° 138° (SE) 2,203 ? -38.5°
Sets 05:50:28 0° 99° (E) 2,963 ? -37.5°
